This is the latest recevied weather packets stored in our database for station/object S51UL-6. If no packets are shown the sender has not sent any weather packets the latest 10 day(s).
| Time | Temp. | Humidity | Pressure | Rain* | Wind** | Luminosity | Snow |
|---|---|---|---|---|---|---|---|
| 1787576924 | 31.67° C | 42% | 1019.7 hPa | 0 mm | - | - | - |
| 1787576624 | 31.11° C | 40% | 1019.7 hPa | 0 mm | - | - | - |
| 1787576324 | 31.67° C | 41% | 1019.7 hPa | 0 mm | - | - | - |
| 1787576024 | 31.11° C | 41% | 1019.9 hPa | 0 mm | - | - | - |
| 1787575724 | 31.67° C | 41% | 1019.9 hPa | 0 mm | - | - | - |
| 1787575124 | 31.67° C | 40% | 1020 hPa | 0 mm | - | - | - |
| 1787574824 | 31.67° C | 39% | 1020 hPa | 0 mm | - | - | - |
| 1787574524 | 32.78° C | 40% | 1019.9 hPa | 0 mm | - | - | - |
| 1787573924 | 32.78° C | 40% | 1019.9 hPa | 0 mm | - | - | - |
| 1787573624 | 33.33° C | 41% | 1020.1 hPa | 0 mm | - | - | - |
| 1787573324 | 33.89° C | 40% | 1020.1 hPa | 0 mm | - | - | - |
| 1787573024 | 33.89° C | 40% | 1020.1 hPa | 0 mm | - | - | - |
| 1787572724 | 33.89° C | 41% | 1019.9 hPa | 0 mm | - | - | - |
| 1787572424 | 33.33° C | 41% | 1019.9 hPa | 0 mm | - | - | - |
| 1787572124 | 33.89° C | 40% | 1020 hPa | 0 mm | - | - | - |
| 1787571825 | 34.44° C | 40% | 1020 hPa | 0 mm | - | - | - |
| 1787571525 | 34.44° C | 40% | 1020.2 hPa | 0 mm | - | - | - |
| 1787570925 | 34.44° C | 41% | 1020.3 hPa | 0 mm | - | - | - |
| 1787570625 | 34.44° C | 41% | 1020.2 hPa | 0 mm | - | - | - |
| 1787570325 | 33.89° C | 43% | 1020.2 hPa | 0 mm | - | - | - |
| 1787570025 | 33.33° C | 43% | 1020.3 hPa | 0 mm | - | - | - |
| 1787569725 | 32.78° C | 43% | 1020.4 hPa | 0 mm | - | - | - |
| 1787569426 | 32.22° C | 43% | 1020.3 hPa | 0 mm | - | - | - |
| 1787568825 | 31.11° C | 49% | 1020.4 hPa | 0 mm | - | - | - |
| 1787568525 | 30° C | 50% | 1020.6 hPa | 0 mm | - | - | - |
* Rain latest hour (hover to see other rain measurements)
** Current wind speed in m/s (hover to see current wind gust speed)